This is the latest recevied weather packets stored in our database for station/object IZ1UQG-1. If no packets are shown the sender has not sent any weather packets the latest 10 day(s).
| Time | Temp. | Humidity | Pressure | Rain* | Wind** | Luminosity | Snow |
|---|---|---|---|---|---|---|---|
| 1777700042 | 12.78° C | 63% | 1027.4 hPa | 195.58 mm | - | - | - |
| 1777699742 | 12.78° C | 63% | 1027.3 hPa | 169.67 mm | - | - | - |
| 1777699442 | 12.78° C | 63% | 1027.3 hPa | 203.71 mm | - | - | - |
| 1777699142 | 12.78° C | 63% | 1027.4 hPa | 196.09 mm | - | - | - |
| 1777698842 | 12.78° C | 63% | 1027.4 hPa | 181.61 mm | - | - | - |
| 1777698542 | 12.78° C | 63% | 1027.5 hPa | 186.18 mm | - | - | - |
| 1777698242 | 12.78° C | 63% | 1027.4 hPa | 163.83 mm | - | - | - |
| 1777697942 | 12.78° C | 63% | 1027.3 hPa | 108.46 mm | - | - | - |
| 1777697642 | 12.78° C | 63% | 1027.3 hPa | 188.72 mm | - | - | - |
| 1777697342 | 12.78° C | 63% | 1027.3 hPa | 170.69 mm | - | - | - |
| 1777697042 | 12.22° C | 63% | 1027.3 hPa | 126.49 mm | - | - | - |
| 1777696742 | 12.22° C | 63% | 1027.2 hPa | 117.35 mm | - | - | - |
| 1777696442 | 12.22° C | 63% | 1027.3 hPa | 230.12 mm | - | - | - |
| 1777696142 | 12.22° C | 63% | 1027.1 hPa | 188.21 mm | - | - | - |
| 1777695842 | 12.22° C | 63% | 1027.2 hPa | 167.64 mm | - | - | - |
| 1777695542 | 12.22° C | 63% | 1027.2 hPa | 154.18 mm | - | - | - |
| 1777695242 | 12.22° C | 62% | 1027 hPa | 235.97 mm | - | - | - |
| 1777694942 | 12.22° C | 62% | 1027 hPa | 216.66 mm | - | - | - |
| 1777694642 | 12.22° C | 62% | 1027.2 hPa | 196.09 mm | - | - | - |
| 1777694342 | 12.78° C | 62% | 1027.1 hPa | 100.08 mm | - | - | - |
| 1777694042 | 12.78° C | 62% | 1027 hPa | 239.01 mm | - | - | - |
| 1777693742 | 12.78° C | 62% | 1027.1 hPa | 216.66 mm | - | - | - |
| 1777693442 | 12.78° C | 62% | 1027 hPa | 204.22 mm | - | - | - |
| 1777693142 | 12.78° C | 62% | 1027 hPa | 162.31 mm | - | - | - |
| 1777692842 | 12.78° C | 62% | 1026.9 hPa | 223.01 mm | - | - | - |
* Rain latest hour (hover to see other rain measurements)
** Current wind speed in m/s (hover to see current wind gust speed)